Date,TemperatureHighF,TemperatureAvgF,TemperatureLowF,DewpointHighF,DewpointAvgF,DewpointLowF,HumidityHigh,HumidityAvg,HumidityLow,PressureMaxIn,PressureMinIn,WindSpeedMaxMPH,WindSpeedAvgMPH,GustSpeedMaxMPH,PrecipitationSumIn
2013-1-1,21,13,5,14,10,5,100,91,76,0.00,40.00,4,1,0,0.00
2013-1-2,25,12,3,14,8,3,98,85,61,0.00,40.00,3,2,0,0.00
2013-1-3,27,16,7,10,7,4,87,69,44,0.00,40.00,2,2,0,0.00
2013-1-4,30,18,6,9,8,3,89,66,41,0.00,40.00,2,1,0,0.00
2013-1-5,33,20,7,16,12,5,93,72,47,0.00,40.00,2,1,0,0.00
2013-1-6,36,24,13,16,14,11,93,67,43,0.00,40.00,3,1,0,0.00
2013-1-7,35,28,22,19,15,11,80,57,36,0.00,40.00,2,1,0,0.00
2013-1-8,35,32,24,31,29,19,98,87,76,0.00,40.00,9,4,0,0.00
2013-1-9,44,34,17,27,23,17,100,67,44,0.00,40.00,13,6,0,0.02
2013-1-10,38,30,18,29,22,17,100,51,50,0.00,40.00,17,8,0,0.01
2013-1-16,27,23,19,19,18,17,89,80,71,0.00,40.00,2,2,0,0.00
2013-1-17,36,24,16,21,18,15,96,81,53,0.00,40.00,3,2,0,0.00
2013-1-18,38,26,17,20,18,14,88,70,45,0.00,40.00,6,2,0,0.00
2013-1-19,40,33,18,19,17,13,82,54,40,0.00,40.00,2,2,0,0.00
2013-1-20,40,25,16,17,14,11,83,63,34,0.00,40.00,3,2,0,0.00
2013-1-21,44,29,15,19,16,11,82,60,35,0.00,40.00,4,2,0,0.00
2013-1-22,49,29,16,18,14,10,80,55,28,0.00,40.00,3,2,0,0.00
2013-1-23,49,36,20,24,19,14,76,52,27,0.00,40.00,9,4,0,0.00
2013-1-24,45,37,34,37,33,24,100,52,44,0.00,40.00,7,2,0,0.00
2013-1-25,40,35,31,38,35,31,100,56,87,0.00,40.00,2,1,0,0.00
2013-1-26,42,36,28,37,34,28,100,71,77,0.00,40.00,5,2,0,0.00
2013-1-27,33,32,30,33,32,30,0,0,100,0.00,40.00,2,1,0,0.00
2013-1-28,14,14,14,12,12,12,91,91,91,0.00,40.00,1,1,0,0.00
2013-1-29,23,21,20,19,16,12,92,80,72,0.00,40.00,8,2,0,0.00
2013-1-30,32,30,27,29,28,27,100,91,86,0.00,40.00,16,9,0,0.01
2013-2-20,36,31,27,27,24,21,100,77,61,0.00,40.00,8,4,0,0.00
2013-2-21,28,22,12,24,18,9,100,84,68,0.00,40.00,10,2,0,0.00
2013-2-22,26,18,10,16,13,9,100,82,57,0.00,40.00,5,2,0,0.00
2013-2-23,25,19,14,25,17,12,100,90,80,0.00,40.00,13,4,0,0.00
2013-2-24,24,17,9,15,12,8,98,82,67,0.00,40.00,6,3,0,0.00
2013-2-25,31,18,4,19,11,4,100,78,47,0.00,40.00,5,2,0,0.00
2013-2-26,24,19,10,18,13,6,84,75,63,0.00,40.00,9,4,0,0.00
2013-2-27,28,13,3,13,8,3,98,81,51,0.00,40.00,6,2,0,0.00
2013-2-28,35,22,7,24,15,6,95,74,48,0.00,40.00,5,2,0,0.00
2013-3-1,43,35,29,32,29,24,93,80,62,0.00,40.00,7,2,0,0.00
2013-3-2,50,34,21,32,26,21,100,78,42,0.00,40.00,2,1,0,0.00
2013-3-3,39,34,31,36,33,26,100,61,78,0.00,40.00,3,1,0,0.00
2013-3-4,33,26,14,33,18,8,98,64,39,0.00,40.00,10,4,0,0.00
2013-3-5,47,27,9,17,10,4,90,55,21,0.00,40.00,11,3,0,0.00
2013-3-6,49,39,30,34,24,18,66,45,37,0.00,40.00,16,6,0,0.00
2013-3-7,45,35,29,34,31,24,100,87,43,0.00,40.00,3,2,0,0.00
2013-3-8,41,34,31,34,32,30,100,56,65,0.00,40.00,6,2,0,0.00
2013-3-9,40,32,22,32,28,18,100,54,65,0.00,40.00,5,2,0,0.00
2013-3-10,19,18,17,17,17,17,96,94,92,0.00,40.00,1,0,0,0.00
2013-3-17,33,31,28,22,19,15,70,62,47,0.00,40.00,6,4,0,0.00
2013-3-18,38,31,25,26,21,17,100,67,45,0.00,40.00,13,4,0,0.00
2013-3-19,45,34,22,18,10,-3,65,41,13,0.00,40.00,6,2,0,0.00
2013-3-20,41,38,28,40,35,16,100,78,42,0.00,40.00,8,2,0,0.00
2013-3-21,43,31,21,34,27,13,100,69,61,0.00,40.00,10,4,0,0.00
2013-3-22,25,21,18,21,16,10,100,81,55,0.00,40.00,8,2,0,0.00
2013-3-23,25,18,13,19,14,8,100,84,65,0.00,40.00,9,4,0,0.00
2013-3-24,26,16,6,19,12,5,99,83,55,0.00,40.00,4,2,0,0.00
2013-3-25,40,24,8,27,16,7,97,74,49,0.00,40.00,3,1,0,0.00
2013-3-26,50,36,27,32,26,23,95,70,34,0.00,40.00,4,2,0,0.00
2013-3-27,55,39,26,31,27,23,100,68,29,0.00,40.00,6,2,0,0.00
2013-3-28,58,44,31,32,28,26,87,57,30,0.00,40.00,4,2,0,0.00
2013-3-29,55,44,33,38,34,31,100,70,45,0.00,40.00,6,2,0,0.00
2013-3-30,56,43,32,37,31,28,92,66,36,0.00,40.00,7,2,0,0.00
2013-3-31,59,43,29,31,27,20,93,60,21,0.00,40.00,5,2,0,0.00
2013-4-1,46,40,33,40,38,32,100,86,58,0.00,40.00,7,2,0,0.00
2013-4-2,50,38,33,38,35,33,100,52,56,0.00,40.00,7,2,0,0.00
2013-4-3,57,42,30,39,33,28,100,75,32,0.00,40.00,5,2,0,0.00
2013-4-4,60,46,31,36,31,29,95,60,30,0.00,40.00,7,3,0,0.00
2013-4-5,53,45,37,42,35,27,100,63,41,0.00,40.00,8,3,0,0.00
2013-4-6,50,40,32,40,33,27,96,78,48,0.00,40.00,6,2,0,0.00
2013-4-7,50,42,31,36,31,22,100,70,37,0.00,40.00,9,3,0,0.00
2013-4-8,45,36,23,35,32,23,100,25,46,0.00,40.00,9,3,0,0.00
2013-4-9,26,20,15,23,17,14,100,84,66,0.00,40.00,10,5,0,0.00
2013-4-10,43,29,11,32,22,11,100,78,54,0.00,40.00,8,4,0,0.00
2013-4-11,46,38,33,37,33,31,100,62,56,0.00,40.00,6,1,0,0.00
2013-4-12,51,39,30,31,28,24,96,69,41,0.00,40.00,5,2,0,0.00
2013-4-13,48,38,30,39,32,26,100,60,43,0.00,40.00,4,3,0,0.00
2013-4-14,39,31,25,27,13,2,100,48,32,0.00,40.00,5,3,0,0.00
2013-4-15,37,30,26,32,28,24,100,65,59,0.00,40.00,4,2,0,0.00
2013-4-16,32,27,22,27,24,19,100,81,71,0.00,40.00,8,4,0,0.00
2013-4-17,32,24,17,26,16,13,92,73,59,0.00,40.00,9,4,0,0.00
2013-4-18,38,29,21,21,10,3,61,45,36,0.00,40.00,8,4,0,0.00
2013-4-19,45,34,24,36,26,17,100,71,54,0.00,40.00,6,2,0,0.00
2013-4-20,44,38,33,39,34,31,100,63,67,0.00,40.00,8,3,0,0.00
2013-4-21,53,40,29,32,29,26,96,67,40,0.00,40.00,5,2,0,0.00
2013-4-22,46,37,29,34,28,19,97,71,45,0.00,40.00,9,4,0,0.00
2013-4-23,43,31,21,25,17,3,98,65,21,0.00,40.00,8,2,0,0.00
2013-4-24,52,38,26,22,16,11,64,43,20,0.00,40.00,4,2,0,0.00
2013-4-25,56,43,27,27,20,11,77,43,25,0.00,40.00,5,3,0,0.00
2013-4-26,58,48,31,27,22,19,66,37,25,0.00,40.00,12,4,0,0.00
2013-4-27,63,44,33,30,26,20,77,50,22,0.00,40.00,8,2,0,0.00
2013-4-28,65,57,36,32,31,29,77,41,26,0.00,40.00,9,3,0,0.00
2013-4-29,64,49,38,34,31,28,74,53,30,0.00,40.00,6,2,0,0.00
2013-4-30,50,44,39,25,15,11,38,30,25,0.00,40.00,10,6,0,0.00
2013-5-1,40,33,27,25,17,8,68,51,35,0.00,40.00,13,4,0,0.19
2013-5-2,56,38,21,23,19,10,87,50,20,0.00,40.00,8,2,0,0.00
2013-5-3,62,44,29,29,22,16,74,48,18,0.00,40.00,5,2,0,0.00
2013-5-4,61,47,32,34,26,19,68,45,27,0.00,40.00,4,2,0,0.00
2013-5-5,65,48,35,38,34,30,92,63,30,0.00,40.00,6,2,0,0.00
2013-5-6,61,49,40,43,38,32,95,69,34,0.00,40.00,9,3,0,0.00
2013-5-7,56,46,35,43,39,35,100,69,49,0.00,40.00,10,3,0,0.00
2013-5-8,53,43,33,46,40,33,100,90,67,0.00,40.00,6,2,0,0.02
2013-5-9,63,48,36,44,37,32,100,52,30,0.00,40.00,7,2,0,0.01
2013-5-10,66,47,38,42,33,-100,90,65,32,0.00,40.00,6,2,0,0.00
2013-5-11,68,50,39,39,30,-100,88,56,28,0.00,40.00,8,3,0,0.00
2013-5-12,73,56,41,38,34,29,75,47,24,0.00,40.00,9,2,0,0.00
2013-5-13,79,60,45,42,37,32,77,46,21,0.00,40.00,9,2,0,0.00
2013-5-14,77,65,50,41,38,35,71,38,24,0.00,40.00,5,2,0,0.00
2013-5-15,75,62,48,45,38,31,72,43,20,0.00,40.00,5,2,0,0.00
2013-5-16,70,54,49,49,19,-100,76,52,28,0.00,40.00,12,3,0,0.00
2013-5-17,59,50,44,47,42,39,96,77,48,0.00,40.00,13,3,0,0.00
2013-5-18,50,44,39,45,42,36,100,65,62,0.00,40.00,5,2,0,0.02
2013-5-19,53,44,36,43,39,36,100,74,51,0.00,40.00,8,2,0,0.02
2013-5-20,55,46,41,46,42,39,100,87,71,0.00,40.00,8,3,0,0.01
2013-5-21,63,52,36,42,36,29,100,51,29,0.00,40.00,11,3,0,0.01
2013-5-22,71,59,45,42,34,29,79,41,20,0.00,40.00,12,5,0,0.01
2013-5-23,68,49,33,40,33,29,100,61,23,0.00,40.00,9,3,0,0.01
2013-5-24,66,51,35,34,25,10,68,40,11,0.00,40.00,10,2,0,0.01
2013-5-25,70,56,42,33,30,24,65,39,21,0.00,40.00,5,2,0,0.01
2013-5-26,70,61,48,35,26,21,45,25,18,0.00,40.00,6,3,0,0.01
2013-5-27,66,57,46,43,36,30,70,47,28,0.00,40.00,7,3,0,0.01
2013-5-28,54,46,41,46,41,31,100,83,47,0.00,40.00,6,2,0,0.01
2013-5-29,53,44,36,42,39,36,100,60,56,0.00,40.00,8,3,0,0.01
2013-5-30,55,44,34,44,37,32,100,47,46,0.00,40.00,9,2,0,0.01
2013-5-31,59,48,38,35,29,20,87,52,29,0.00,40.00,10,2,0,0.01
2013-6-1,68,55,33,42,33,28,86,47,24,0.00,40.00,6,2,0,0.01
2013-6-2,78,66,39,40,32,28,84,34,15,0.00,40.00,16,5,0,0.01
2013-6-3,68,60,45,41,31,19,68,37,15,0.00,40.00,6,2,0,0.01
2013-6-4,72,58,37,38,34,30,82,44,25,0.00,40.00,6,2,0,0.01
2013-6-5,70,57,40,44,39,34,92,55,29,0.00,40.00,5,2,0,0.01
2013-6-6,75,60,43,43,40,35,86,50,27,0.00,40.00,4,2,0,0.01
2013-6-7,77,59,46,47,44,40,85,60,27,0.00,40.00,5,1,0,0.01
2013-6-8,76,67,55,47,40,35,71,40,23,0.00,40.00,11,3,0,0.01
2013-6-9,85,67,46,50,44,38,78,47,23,0.00,40.00,6,2,0,0.00
2013-6-10,83,72,58,51,37,26,64,33,13,0.00,40.00,6,2,0,0.01
2013-6-11,77,66,58,38,32,25,45,29,18,0.00,40.00,4,2,0,0.00
2013-6-12,77,70,51,44,38,29,76,32,17,0.00,40.00,8,5,0,0.01
2013-6-13,78,72,56,41,36,27,54,28,15,0.00,40.00,10,4,0,0.00
2013-6-14,65,51,41,43,37,33,83,60,43,0.00,40.00,5,2,0,0.01
2013-6-15,75,64,36,38,35,32,92,38,20,0.00,40.00,3,2,0,0.01
2013-6-16,78,74,58,39,30,27,47,21,15,0.00,40.00,5,3,0,0.01
2013-6-17,82,73,60,35,29,24,39,22,11,0.00,40.00,2,2,0,0.00
2013-6-18,80,74,67,38,27,20,34,18,14,0.00,40.00,10,4,0,0.01
2013-6-19,71,63,50,37,28,22,37,26,18,0.00,40.00,10,3,0,0.00
2013-6-20,60,53,45,32,30,28,58,42,32,0.00,40.00,3,3,0,0.01
2013-6-21,70,70,70,36,35,34,28,27,26,0.00,40.00,4,2,0,0.01
2013-6-22,67,63,61,40,38,37,46,40,34,0.00,40.00,3,2,0,0.01
2013-6-23,75,70,53,36,34,32,51,28,20,0.00,40.00,6,3,0,0.00
2013-6-24,71,63,55,46,37,30,72,41,28,0.00,40.00,5,3,0,0.00
2013-6-25,74,59,46,49,48,46,100,70,37,0.00,40.00,6,2,0,0.00
2013-6-26,81,76,67,50,50,49,54,40,33,0.00,40.00,5,2,0,0.00
2013-6-27,84,63,52,51,49,47,84,63,29,0.00,40.00,3,1,0,0.00
2013-6-28,80,79,78,51,48,46,37,34,32,0.00,40.00,1,1,0,0.01
2013-6-29,90,77,61,50,46,41,54,35,22,0.00,40.00,4,2,0,0.00
2013-6-30,87,70,58,52,48,44,72,51,22,0.00,40.00,4,2,0,0.00
2013-7-1,86,74,54,49,48,46,74,41,24,0.00,40.00,4,2,0,0.01
2013-7-2,86,78,75,50,48,43,39,35,22,0.00,40.00,3,2,0,0.00
2013-7-3,84,80,75,55,54,53,46,40,37,0.00,40.00,3,2,0,0.00
2013-7-4,80,66,57,64,59,54,100,67,42,0.00,40.00,5,2,0,0.03
2013-7-5,81,68,56,61,58,56,100,74,42,0.00,40.00,5,2,0,0.01
2013-7-6,74,59,53,60,56,53,100,92,56,0.00,40.00,4,2,0,0.01
2013-7-7,83,64,55,58,53,50,90,70,37,0.00,40.00,4,2,0,0.02
2013-7-8,81,63,53,57,53,48,100,76,34,0.00,40.00,4,1,0,0.01
2013-7-9,83,60,54,51,49,40,90,74,21,0.00,40.00,1,1,0,0.03
2013-7-10,84,62,68,48,14,-100,39,23,17,0.00,40.00,4,2,0,0.03
2013-7-11,78,66,58,57,54,49,94,68,35,0.00,40.00,2,1,0,0.02
2013-7-12,73,59,55,60,57,55,100,69,62,0.00,40.00,5,2,0,0.02
2013-7-13,80,65,59,60,58,56,93,81,49,0.00,40.00,4,2,0,0.03
2013-7-14,80,59,49,60,53,47,100,52,31,0.00,40.00,6,1,0,0.01
2013-7-15,83,76,66,60,54,49,79,49,30,0.00,40.00,10,4,0,0.00
2013-7-16,75,62,59,61,60,57,100,92,60,0.00,40.00,2,1,0,0.02
2013-7-17,78,64,56,64,59,56,100,86,57,0.00,40.00,3,1,0,0.01
2013-7-18,83,66,54,59,57,54,100,78,37,0.00,40.00,2,1,0,0.00
2013-7-19,83,68,56,52,48,45,71,53,26,0.00,40.00,1,0,0,0.00
2013-7-20,56,56,56,41,41,41,55,55,55,0.00,40.00,1,1,0,0.00
2013-7-21,81,73,57,42,40,37,47,32,24,0.00,40.00,1,1,0,0.00
2013-7-22,83,79,74,46,45,45,36,31,27,0.00,40.00,1,1,0,0.00
2013-7-24,76,75,74,52,50,49,45,42,39,0.00,40.00,5,4,0,0.00
2013-7-25,62,58,55,52,52,52,87,81,71,0.00,40.00,1,0,0,0.00
2013-7-26,70,65,58,44,40,38,60,43,31,0.00,40.00,1,0,0,0.00
2013-7-27,70,64,58,60,56,46,99,80,64,0.00,40.00,6,2,0,0.00
2013-7-28,75,60,50,59,54,50,100,52,49,0.00,40.00,7,1,0,0.00
2013-7-29,58,54,52,52,52,51,100,93,78,0.00,40.00,6,3,0,0.00
2013-7-31,83,81,75,40,37,36,28,21,19,0.00,40.00,9,6,0,0.00
2013-8-1,82,73,67,58,56,51,70,57,35,0.00,40.00,11,8,0,0.00
2013-8-12,65,65,65,42,42,42,42,42,42,0.00,40.00,6,6,0,0.00
2013-8-13,47,47,46,44,44,44,91,91,90,0.00,40.00,1,1,0,0.01
2013-8-14,80,60,50,41,-6,-100,73,59,31,0.00,40.00,1,1,0,0.00
2013-8-15,88,44,88,33,-34,-100,13,6,13,0.00,40.00,2,2,0,0.00
2013-8-17,64,55,53,55,42,-100,95,74,57,0.00,40.00,12,6,0,0.02
2013-8-18,53,53,53,52,52,52,95,95,95,0.00,40.00,1,1,0,0.00
2013-8-20,78,58,55,59,42,-100,93,74,44,0.00,40.00,9,2,0,0.01
2013-8-21,56,53,50,55,53,50,100,99,97,0.00,40.00,1,1,0,0.04
2013-8-22,77,64,54,57,53,51,89,72,42,0.00,40.00,4,1,0,0.06
2013-8-23,67,60,55,58,56,53,100,87,63,0.00,40.00,12,3,0,0.01
2013-8-24,75,55,48,57,47,-100,100,52,34,0.00,40.00,10,2,0,0.00
2013-8-25,72,62,51,56,52,50,94,72,48,0.00,40.00,6,3,0,0.00
2013-8-26,65,63,59,58,55,52,92,76,67,0.00,40.00,11,4,0,0.00
2013-8-27,67,61,56,58,57,55,96,85,72,0.00,40.00,5,2,0,0.00
2013-8-28,81,75,70,55,53,49,58,47,36,0.00,40.00,7,5,0,0.00
2013-8-29,70,58,53,55,53,52,95,84,59,0.00,40.00,2,1,0,0.00
2013-8-30,81,72,55,58,54,52,94,58,36,0.00,40.00,5,2,0,0.00
2013-8-31,81,64,55,55,53,50,91,72,37,0.00,40.00,5,2,0,0.00
2013-9-1,75,69,60,61,58,56,100,71,54,0.00,40.00,2,1,0,0.00
2013-9-2,80,66,60,62,60,57,100,81,47,0.00,40.00,6,2,0,0.00
2013-9-3,80,64,54,60,57,54,100,81,43,0.00,40.00,2,1,0,0.00
2013-9-4,78,75,71,58,57,55,65,54,47,0.00,40.00,5,2,0,0.00
2013-9-5,83,71,55,56,53,49,95,55,31,0.00,40.00,13,5,0,0.00
2013-9-6,77,64,57,54,52,45,86,67,32,0.00,40.00,1,1,0,0.00
2013-9-7,75,59,54,57,55,53,100,61,51,0.00,40.00,5,1,0,0.01
2013-9-8,61,55,51,59,54,51,100,36,86,0.00,40.00,2,1,0,0.01
2013-9-9,69,55,47,56,51,47,93,38,59,0.00,40.00,2,1,0,0.01
2013-9-10,66,57,52,58,53,50,100,87,66,0.00,40.00,3,1,0,0.00
2013-9-11,68,59,53,59,56,53,100,55,72,0.00,40.00,5,2,0,0.01
2013-9-12,66,56,49,56,53,49,100,58,62,0.00,40.00,7,3,0,0.00
2013-9-13,58,54,48,58,54,48,100,42,100,0.00,40.00,3,1,0,0.00
2013-9-14,59,52,48,58,50,-100,100,38,96,0.00,40.00,4,1,0,0.00
2013-9-15,67,54,45,57,51,45,100,44,63,0.00,40.00,7,2,0,0.00
2013-9-16,65,52,46,58,50,46,100,53,66,0.00,40.00,4,1,0,0.00
2013-9-17,68,62,56,58,54,42,91,74,39,0.00,40.00,13,4,0,0.00
2013-9-18,54,49,38,41,38,32,79,65,60,0.00,40.00,2,1,0,0.00
2013-9-19,55,40,32,35,33,31,100,79,44,0.00,40.00,4,1,0,0.00
2013-9-20,74,47,32,37,33,31,99,71,21,0.00,40.00,9,3,0,0.00
2013-9-21,70,60,54,42,30,-100,65,37,30,0.00,40.00,5,3,0,0.00
2013-9-22,61,55,50,44,41,37,74,60,41,0.00,40.00,7,3,0,0.00
2013-9-23,62,50,42,41,38,32,89,64,31,0.00,40.00,6,2,0,0.00
2013-9-24,64,43,36,38,36,34,100,84,34,0.00,40.00,2,1,0,0.00
2013-9-25,57,40,35,45,37,32,100,56,37,0.00,40.00,4,2,0,0.00
2013-9-26,42,37,35,40,37,35,100,43,93,0.00,40.00,3,1,0,0.01
2013-9-27,41,36,29,38,34,29,100,68,73,0.00,40.00,8,2,0,0.01
2013-9-28,42,31,26,36,30,26,100,65,77,0.00,40.00,2,1,0,0.00
2013-9-29,59,46,34,34,32,31,93,65,34,0.00,40.00,5,2,0,0.00
2013-9-30,67,60,56,35,30,27,34,32,30,0.00,40.00,13,6,0,0.00
2013-10-1,63,54,46,35,33,31,63,46,29,0.00,40.00,1,1,0,0.00
2013-10-2,66,49,39,45,39,36,100,75,33,0.00,40.00,1,1,0,0.00
2013-10-3,43,37,32,43,35,27,100,74,69,0.00,40.00,4,2,0,0.01
2013-10-4,37,32,26,33,30,26,100,50,77,0.00,40.00,3,1,0,0.01
2013-10-5,49,34,25,36,29,25,100,75,52,0.00,40.00,8,3,0,0.00
2013-10-6,65,41,28,38,32,28,100,76,35,0.00,40.00,4,2,0,0.00
2013-10-7,70,57,32,33,29,27,93,43,21,0.00,40.00,7,3,0,0.00
2013-10-8,60,54,39,32,27,25,73,37,25,0.00,40.00,11,3,0,0.00
2013-10-9,58,45,31,40,33,28,91,66,33,0.00,40.00,7,2,0,0.00
2013-10-10,45,41,37,42,40,37,100,95,78,0.00,40.00,4,1,0,0.00
2013-10-11,48,38,30,38,32,27,100,65,44,0.00,40.00,3,2,0,0.00
2013-10-12,56,38,28,41,28,-100,100,76,37,0.00,40.00,14,3,0,0.01
2013-10-13,50,42,37,41,40,37,100,69,65,0.00,40.00,6,1,0,0.01
2013-10-14,41,37,31,37,34,31,100,75,77,0.00,40.00,9,3,0,0.01
2013-10-15,41,34,28,31,30,26,100,79,65,0.00,40.00,5,2,0,0.00
2013-10-16,48,32,21,30,26,21,100,80,42,0.00,40.00,6,1,0,0.00
2013-10-17,49,36,26,30,26,22,91,70,44,0.00,40.00,11,2,0,0.00
2013-10-18,49,37,30,30,28,25,93,74,43,0.00,40.00,5,2,0,0.00
2013-10-19,54,31,25,29,20,-100,88,73,37,0.00,40.00,4,1,0,0.00
2013-10-20,55,43,34,30,26,24,81,53,31,0.00,40.00,8,2,0,0.00
2013-10-21,56,38,29,32,29,27,93,74,37,0.00,40.00,7,2,0,0.00
2013-10-22,63,42,30,32,30,28,92,66,28,0.00,40.00,4,1,0,0.00
2013-10-23,63,41,31,32,30,28,93,69,30,0.00,40.00,3,1,0,0.00
2013-10-24,64,40,31,31,29,28,89,69,29,0.00,40.00,2,1,0,0.00
2013-10-25,61,45,38,32,28,26,71,53,31,0.00,40.00,1,1,0,0.00
2013-10-26,62,43,30,31,28,24,91,59,26,0.00,40.00,7,2,0,0.00
2013-10-27,62,45,30,35,27,23,83,52,22,0.00,40.00,6,2,0,0.00
2013-10-28,53,42,33,38,32,-100,98,65,38,0.00,40.00,14,3,0,0.01
2013-10-29,38,33,30,35,32,30,100,55,85,0.00,40.00,6,1,0,0.01
2013-10-30,36,31,25,35,30,25,100,73,90,0.00,40.00,3,1,0,0.01
2013-10-31,43,36,32,34,32,30,94,85,70,0.00,40.00,4,2,0,0.00
2013-11-1,50,40,30,36,34,29,98,79,56,0.00,40.00,8,3,0,0.00
2013-11-2,58,36,24,28,24,16,97,70,24,0.00,40.00,5,2,0,0.00
2013-11-3,47,32,26,30,23,16,95,70,37,0.00,40.00,7,3,0,0.00
2013-11-4,29,23,19,26,20,16,94,87,77,0.00,40.00,5,2,0,0.00
2013-11-5,31,22,17,23,19,14,100,89,66,0.00,40.00,6,2,0,0.00
2013-11-6,40,29,18,30,24,15,90,80,62,0.00,40.00,2,1,0,0.00
2013-11-7,55,32,25,32,27,25,100,87,40,0.00,40.00,5,1,0,0.00
2013-11-8,54,43,32,30,26,24,82,54,33,0.00,40.00,5,2,0,0.00
2013-11-9,57,34,29,30,22,-100,89,74,33,0.00,40.00,2,1,0,0.00
2013-11-10,59,38,30,27,26,25,81,65,29,0.00,40.00,1,1,0,0.00
2013-11-11,63,40,30,28,26,24,81,60,24,0.00,40.00,2,1,0,0.00
2013-11-12,56,42,31,28,25,24,74,53,33,0.00,40.00,2,1,0,0.00
2013-11-13,54,45,34,32,27,24,76,52,31,0.00,40.00,7,2,0,0.00
2013-11-14,44,33,25,31,28,22,99,82,59,0.00,40.00,2,1,0,0.00
2013-11-15,34,30,21,33,28,21,100,85,76,0.00,40.00,5,2,0,0.00
2013-11-16,34,28,23,31,27,22,100,79,72,0.00,40.00,7,2,0,0.01
2013-11-17,44,30,24,32,28,24,100,81,60,0.00,40.00,4,1,0,0.01
2013-11-18,51,35,22,31,27,22,100,69,45,0.00,40.00,2,1,0,0.00
2013-11-19,42,37,34,38,33,29,100,84,71,0.00,40.00,7,1,0,0.01
2013-11-20,41,36,31,37,35,31,100,70,86,0.00,40.00,3,2,0,0.00
2013-11-21,34,26,17,34,25,17,100,56,98,0.00,40.00,3,1,0,0.01
2013-11-22,24,16,11,21,13,9,100,90,73,0.00,40.00,2,1,0,0.01
2013-11-23,31,20,6,23,14,6,99,78,47,0.00,40.00,3,2,0,0.00
2013-11-24,37,28,20,29,25,19,100,90,72,0.00,40.00,2,1,0,0.00
2013-11-25,43,27,17,27,23,17,100,85,53,0.00,40.00,3,1,0,0.00
2013-11-26,48,30,20,27,24,20,100,80,44,0.00,40.00,2,1,0,0.00
2013-11-27,49,34,23,26,23,20,89,67,33,0.00,40.00,2,1,0,0.00
2013-11-28,48,33,23,26,23,20,88,70,32,0.00,40.00,7,2,0,0.00
2013-11-29,46,33,27,29,26,24,89,78,46,0.00,40.00,4,1,0,0.00
2013-11-30,46,30,22,27,25,21,97,81,45,0.00,40.00,3,1,0,0.00
2013-12-1,44,36,28,33,31,27,95,79,54,0.00,40.00,3,2,0,0.00
2013-12-2,46,38,33,36,31,22,100,55,38,0.00,40.00,6,2,0,0.01
2013-12-3,33,20,13,33,20,13,100,65,100,0.00,40.00,9,3,0,0.03
2013-12-4,14,6,-5,12,5,-5,100,94,80,0.00,40.00,5,2,0,0.01
2013-12-5,8,-1,-10,6,-2,-11,99,94,83,0.00,40.00,3,1,0,0.00
2013-12-6,10,1,-8,8,-1,-9,100,92,72,0.00,40.00,4,1,0,0.00
2013-12-7,17,13,5,17,13,3,100,98,91,0.00,40.00,13,4,0,0.00
2013-12-8,12,7,1,12,4,0,100,88,65,0.00,40.00,4,2,0,0.00
2013-12-9,12,2,-6,4,-1,-6,100,90,69,0.00,40.00,2,1,0,0.00
2013-12-10,30,10,-4,17,7,-4,99,90,58,0.00,40.00,4,2,0,0.00
2013-12-11,33,15,7,21,13,7,100,92,60,0.00,40.00,2,1,0,0.00
2013-12-12,25,16,11,22,15,11,100,97,87,0.00,40.00,2,1,0,0.00
2013-12-13,30,21,16,20,18,16,100,90,64,0.00,40.00,7,2,0,0.00
2013-12-14,26,19,10,24,18,10,100,98,88,0.00,40.00,3,1,0,0.00
2013-12-15,40,24,14,26,20,14,100,79,57,0.00,40.00,2,1,0,0.00
2013-12-16,46,28,20,24,21,18,96,76,38,0.00,40.00,2,1,0,0.00
2013-12-17,45,35,20,23,22,17,87,60,40,0.00,40.00,3,2,0,0.00
2013-12-18,46,35,24,37,27,21,100,75,38,0.00,40.00,5,2,0,0.00
2013-12-19,37,30,24,37,30,24,100,9,100,0.00,40.00,4,2,0,0.01
2013-12-20,25,19,13,24,19,13,100,65,88,0.00,40.00,3,1,0,0.00
2013-12-21,27,20,15,26,17,-100,100,92,93,0.00,40.00,3,1,0,0.01
2013-12-22,27,24,17,27,24,17,100,58,100,0.00,40.00,2,1,0,0.01
2013-12-23,35,30,26,35,30,26,100,50,98,0.00,40.00,2,1,0,0.01
2013-12-24,39,27,13,32,22,12,97,58,41,0.00,40.00,10,3,0,0.00
2013-12-25,35,15,7,17,12,7,100,89,46,0.00,40.00,2,2,0,0.00
2013-12-26,38,20,10,19,15,10,100,83,35,0.00,40.00,3,2,0,0.00
2013-12-27,38,25,18,25,21,18,100,89,59,0.00,40.00,3,1,0,0.00
2013-12-28,41,26,18,23,18,-100,100,80,40,0.00,40.00,4,2,0,0.00
2013-12-29,31,17,10,18,14,10,100,89,58,0.00,40.00,3,1,0,0.00
2013-12-30,37,24,15,21,18,13,99,82,48,0.00,40.00,3,1,0,0.00
2013-12-31,40,30,20,34,28,20,100,92,56,0.00,40.00,13,1,0,0.00
2014-1-1,39,31,20,30,25,19,99,78,55,0.00,40.00,13,4,0,0.00
2014-1-2,39,25,17,25,20,17,100,84,53,0.00,40.00,3,1,0,0.00